| time (UTC) | temp F | wind direction | speed MPH | gust MPH | rain 1hr in | rain 24hr in | rain mn in | humidity % | barometer mb |
| 20260905120505 | 88 | 275 | 6.0 | 8.0 | 0.00 | 0.00 | 0.00 | 37 | 1019.8 |
| 20260905120005 | 88 | 274 | 6.0 | 8.0 | 0.00 | 0.00 | 0.00 | 38 | 1019.8 |
| 20260905115505 | 88 | 279 | 2.0 | 6.0 | 0.00 | 0.00 | 0.00 | 39 | 1019.8 |
| 20260905115006 | 88 | 289 | 4.0 | 9.0 | 0.00 | 0.00 | 0.00 | 39 | 1019.8 |
| 20260905114506 | 88 | 295 | 4.0 | 9.0 | 0.00 | 0.00 | 0.00 | 38 | 1019.8 |
| 20260905114005 | 87 | 305 | 4.0 | 6.0 | 0.00 | 0.00 | 0.00 | 39 | 1019.8 |
| 20260905113006 | 87 | 308 | 3.0 | 6.0 | 0.00 | 0.00 | 0.00 | 35 | 1019.8 |
| 20260905112505 | 87 | 311 | 4.0 | 5.0 | 0.00 | 0.00 | 0.00 | 39 | 1019.8 |
| 20260905112005 | 87 | 287 | 4.0 | 5.0 | 0.00 | 0.00 | 0.00 | 43 | 1019.8 |
| 20260905111505 | 87 | 285 | 2.0 | 5.0 | 0.00 | 0.00 | 0.00 | 42 | 1019.8 |
| 20260905110505 | 86 | 183 | 2.0 | 4.0 | 0.00 | 0.00 | 0.00 | 47 | 1019.8 |
| 20260905110005 | 85 | 218 | 2.0 | 4.0 | 0.00 | 0.00 | 0.00 | 46 | 1019.8 |
| 20260905105505 | 85 | 313 | 1.0 | 4.0 | 0.00 | 0.00 | 0.00 | 50 | 1019.8 |
| 20260905105006 | 84 | 247 | 3.0 | 4.0 | 0.00 | 0.00 | 0.00 | 51 | 1019.8 |
| 20260905104505 | 84 | 160 | 0.0 | 4.0 | 0.00 | 0.00 | 0.00 | 53 | 1019.8 |
| 20260905104005 | 83 | 164 | 1.0 | 4.0 | 0.00 | 0.00 | 0.00 | 52 | 1018.8 |
| 20260905103505 | 83 | 150 | 3.0 | 4.0 | 0.00 | 0.00 | 0.00 | 53 | 1018.8 |
| 20260905103006 | 82 | 57 | 1.0 | 3.0 | 0.00 | 0.00 | 0.00 | 55 | 1018.8 |
| 20260905102505 | 82 | 50 | 2.0 | 3.0 | 0.00 | 0.00 | 0.00 | 56 | 1019.8 |
| 20260905102005 | 81 | 63 | 2.0 | 3.0 | 0.00 | 0.00 | 0.00 | 56 | 1019.8 |
| 20260905101005 | 81 | 129 | 2.0 | 4.0 | 0.00 | 0.00 | 0.00 | 57 | 1018.8 |
| 20260905100505 | 80 | 148 | 2.0 | 3.0 | 0.00 | 0.00 | 0.00 | 59 | 1018.8 |
| 20260905100005 | 80 | 139 | 1.0 | 2.0 | 0.00 | 0.00 | 0.00 | 59 | 1018.8 |
| 20260905095505 | 80 | 115 | 2.0 | 2.0 | 0.00 | 0.00 | 0.00 | 60 | 1019.8 |
| 20260905095005 | 80 | 119 | 1.0 | 2.0 | 0.00 | 0.00 | 0.00 | 60 | 1019.8 |
| 20260905094504 | 80 | 158 | 0.0 | 2.0 | 0.00 | 0.00 | 0.00 | 60 | 1019.8 |
| 20260905093505 | 79 | 158 | 0.0 | 2.0 | 0.00 | 0.00 | 0.00 | 60 | 1018.8 |
| 20260905093005 | 79 | 156 | 1.0 | 3.0 | 0.00 | 0.00 | 0.00 | 60 | 1018.8 |
| 20260905092005 | 79 | 154 | 2.0 | 3.0 | 0.00 | 0.00 | 0.00 | 61 | 1019.8 |
| 20260905091505 | 78 | 156 | 2.0 | 3.0 | 0.00 | 0.00 | 0.00 | 62 | 1019.8 |
| 20260905091005 | 78 | 137 | 2.0 | 3.0 | 0.00 | 0.00 | 0.00 | 62 | 1019.8 |
| 20260905090504 | 78 | 106 | 2.0 | 2.0 | 0.00 | 0.00 | 0.00 | 62 | 1019.8 |
| 20260905090006 | 78 | 74 | 2.0 | 2.0 | 0.00 | 0.00 | 0.00 | 62 | 1019.8 |
| 20260905085506 | 77 | 41 | 1.0 | 2.0 | 0.00 | 0.00 | 0.00 | 62 | 1019.8 |
| 20260905085005 | 77 | 49 | 1.0 | 3.0 | 0.00 | 0.00 | 0.00 | 62 | 1019.8 |
| 20260905084505 | 77 | 63 | 2.0 | 3.0 | 0.00 | 0.00 | 0.00 | 62 | 1019.8 |
| 20260905084005 | 77 | 83 | 2.0 | 3.0 | 0.00 | 0.00 | 0.00 | 63 | 1019.8 |
| 20260905083505 | 77 | 120 | 2.0 | 2.0 | 0.00 | 0.00 | 0.00 | 64 | 1019.8 |
| 20260905083005 | 76 | 154 | 1.0 | 2.0 | 0.00 | 0.00 | 0.00 | 64 | 1019.8 |
| 20260905082505 | 76 | 181 | 1.0 | 4.0 | 0.00 | 0.00 | 0.00 | 65 | 1018.8 |
| 20260905081505 | 76 | 211 | 2.0 | 3.0 | 0.00 | 0.00 | 0.00 | 65 | 1018.8 |
| 20260905081005 | 75 | 282 | 1.0 | 3.0 | 0.00 | 0.00 | 0.00 | 68 | 1019.8 |
| 20260905080505 | 75 | 306 | 2.0 | 3.0 | 0.00 | 0.00 | 0.00 | 72 | 1019.8 |
| 20260905080005 | 74 | 3 | 2.0 | 3.0 | 0.00 | 0.00 | 0.00 | 72 | 1019.8 |
| 20260905075505 | 74 | 86 | 0.0 | 3.0 | 0.00 | 0.00 | 0.00 | 73 | 1019.8 |
| 20260905074505 | 73 | 108 | 2.0 | 4.0 | 0.00 | 0.00 | 0.00 | 75 | 1019.8 |
| 20260905074005 | 72 | 94 | 1.0 | 3.0 | 0.00 | 0.00 | 0.00 | 75 | 1019.8 |
| 20260905073505 | 72 | 101 | 0.0 | 4.0 | 0.00 | 0.00 | 0.00 | 78 | 1019.8 |
| 20260905073005 | 71 | 117 | 2.0 | 4.0 | 0.00 | 0.00 | 0.00 | 80 | 1019.8 |
| 20260905072505 | 71 | 97 | 1.0 | 2.0 | 0.00 | 0.00 | 0.00 | 80 | 1019.8 |
| 20260905072005 | 70 | 85 | 0.0 | 2.0 | 0.00 | 0.00 | 0.00 | 80 | 1019.8 |
| 20260905071005 | 69 | 151 | 1.0 | 2.0 | 0.00 | 0.00 | 0.00 | 82 | 1019.8 |
| 20260905070504 | 69 | 125 | 2.0 | 2.0 | 0.00 | 0.00 | 0.00 | 82 | 1019.8 |
| 20260905070005 | 68 | 101 | 1.0 | 2.0 | 0.00 | 0.00 | 0.00 | 84 | 1019.8 |
| 20260905065505 | 68 | 98 | 0.0 | 3.0 | 0.00 | 0.00 | 0.00 | 84 | 1019.8 |
| 20260905065005 | 67 | 134 | 2.0 | 3.0 | 0.00 | 0.00 | 0.00 | 85 | 1019.8 |
| 20260905064504 | 67 | 158 | 2.0 | 2.0 | 0.00 | 0.00 | 0.00 | 86 | 1019.8 |
| 20260905064005 | 67 | 199 | 2.0 | 2.0 | 0.00 | 0.00 | 0.00 | 87 | 1019.8 |
| 20260905063505 | 66 | 261 | 0.0 | 2.0 | 0.00 | 0.00 | 0.00 | 86 | 1019.8 |
| 20260905063005 | 66 | 160 | 0.0 | 2.0 | 0.00 | 0.00 | 0.00 | 87 | 1019.8 |
| 20260905062005 | 65 | 95 | 2.0 | 3.0 | 0.00 | 0.00 | 0.00 | 87 | 1019.8 |
| 20260905061505 | 65 | 68 | 2.0 | 3.0 | 0.00 | 0.00 | 0.00 | 88 | 1019.8 |
| 20260905061005 | 64 | 67 | 2.0 | 3.0 | 0.00 | 0.00 | 0.00 | 88 | 1019.8 |
| 20260905060505 | 64 | 96 | 2.0 | 3.0 | 0.00 | 0.00 | 0.00 | 89 | 1019.8 |
| 20260905060005 | 64 | 116 | 1.0 | 3.0 | 0.00 | 0.00 | 0.00 | 90 | 1019.8 |
| 20260905055504 | 63 | 130 | 1.0 | 2.0 | 0.00 | 0.00 | 0.00 | 90 | 1019.8 |
| 20260905054505 | 63 | 68 | 0.0 | 1.0 | 0.00 | 0.00 | 0.00 | 88 | 1019.8 |
| 20260905053505 | 62 | 67 | 2.0 | 2.0 | 0.00 | 0.00 | 0.00 | 89 | 1019.8 |
| 20260905053005 | 62 | 101 | 1.0 | 2.0 | 0.00 | 0.00 | 0.00 | 88 | 1019.8 |
| 20260905052505 | 62 | 112 | 0.0 | 2.0 | 0.00 | 0.00 | 0.00 | 88 | 1019.8 |
| 20260905052005 | 62 | 112 | 0.0 | 2.0 | 0.00 | 0.00 | 0.00 | 88 | 1019.8 |
| 20260905051504 | 62 | 112 | 1.0 | 2.0 | 0.00 | 0.00 | 0.00 | 88 | 1019.8 |
| 20260905050505 | 62 | 70 | 0.0 | 2.0 | 0.00 | 0.00 | 0.00 | 87 | 1019.8 |
| 20260905050005 | 62 | 70 | 0.0 | 2.0 | 0.00 | 0.00 | 0.00 | 87 | 1019.8 |
| 20260905045505 | 62 | 68 | 1.0 | 2.0 | 0.00 | 0.00 | 0.00 | 87 | 1019.8 |
| 20260905044505 | 62 | 58 | 1.0 | 2.0 | 0.00 | 0.00 | 0.00 | 87 | 1019.8 |
| 20260905044005 | 62 | 56 | 0.0 | 3.0 | 0.00 | 0.00 | 0.00 | 87 | 1018.8 |
| 20260905043505 | 62 | 56 | 2.0 | 3.0 | 0.00 | 0.00 | 0.00 | 87 | 1018.8 |
| 20260905043004 | 62 | 59 | 2.0 | 2.0 | 0.00 | 0.00 | 0.00 | 87 | 1018.8 |
| 20260905042005 | 62 | 68 | 0.0 | 2.0 | 0.00 | 0.00 | 0.00 | 87 | 1018.8 |
| 20260905041505 | 62 | 68 | 0.0 | 2.0 | 0.00 | 0.00 | 0.00 | 87 | 1018.8 |
| 20260905041005 | 62 | 68 | 1.0 | 2.0 | 0.00 | 0.00 | 0.00 | 87 | 1018.8 |
| 20260905040505 | 62 | 78 | 1.0 | 3.0 | 0.00 | 0.00 | 0.00 | 87 | 1018.8 |
| 20260905035505 | 63 | 77 | 2.0 | 2.0 | 0.00 | 0.00 | 0.00 | 86 | 1019.8 |
| 20260905035004 | 63 | 68 | 1.0 | 2.0 | 0.00 | 0.00 | 0.00 | 86 | 1019.8 |
| 20260905034505 | 63 | 68 | 2.0 | 2.0 | 0.00 | 0.00 | 0.00 | 86 | 1019.8 |
| 20260905034005 | 63 | 0 | 0.0 | 0.0 | 0.00 | 0.00 | 0.00 | 86 | 1018.8 |
| 20260905033505 | 63 | 203 | 0.0 | 2.0 | 0.00 | 0.00 | 0.00 | 86 | 1018.8 |
| 20260905033004 | 63 | 53 | 0.0 | 2.0 | 0.00 | 0.00 | 0.00 | 86 | 1018.8 |
| 20260905032505 | 63 | 34 | 0.0 | 3.0 | 0.00 | 0.00 | 0.00 | 86 | 1019.8 |
| 20260905032004 | 63 | 55 | 2.0 | 3.0 | 0.00 | 0.00 | 0.00 | 85 | 1019.8 |
| 20260905031505 | 63 | 75 | 2.0 | 2.0 | 0.00 | 0.00 | 0.00 | 86 | 1019.8 |
| 20260905031005 | 63 | 81 | 2.0 | 2.0 | 0.00 | 0.00 | 0.00 | 86 | 1019.8 |
| 20260905030505 | 63 | 103 | 1.0 | 2.0 | 0.00 | 0.00 | 0.00 | 86 | 1019.8 |
| 20260905030004 | 63 | 108 | 0.0 | 2.0 | 0.00 | 0.00 | 0.00 | 86 | 1019.8 |
| 20260905025505 | 63 | 49 | 0.0 | 2.0 | 0.00 | 0.00 | 0.00 | 86 | 1019.8 |
| 20260905025005 | 63 | 46 | 1.0 | 2.0 | 0.00 | 0.00 | 0.00 | 86 | 1019.8 |
| 20260905024505 | 63 | 67 | 2.0 | 2.0 | 0.00 | 0.00 | 0.00 | 85 | 1019.8 |
| 20260905024005 | 63 | 104 | 1.0 | 2.0 | 0.00 | 0.00 | 0.00 | 86 | 1019.8 |
| 20260905023504 | 63 | 0 | 0.0 | 0.0 | 0.00 | 0.00 | 0.00 | 85 | 1019.8 |
| 20260905022505 | 63 | 112 | 0.0 | 2.0 | 0.00 | 0.00 | 0.00 | 85 | 1019.8 |
| 20260905022005 | 64 | 107 | 1.0 | 2.0 | 0.00 | 0.00 | 0.00 | 86 | 1019.8 |
| 20260905021505 | 64 | 80 | 1.0 | 3.0 | 0.00 | 0.00 | 0.00 | 86 | 1019.8 |
| 20260905021005 | 64 | 61 | 2.0 | 3.0 | 0.00 | 0.00 | 0.00 | 85 | 1019.8 |
| 20260905020505 | 64 | 74 | 2.0 | 3.0 | 0.00 | 0.00 | 0.00 | 85 | 1019.8 |
| 20260905020004 | 64 | 88 | 2.0 | 3.0 | 0.00 | 0.00 | 0.00 | 86 | 1019.8 |
| 20260905015505 | 64 | 104 | 0.0 | 2.0 | 0.00 | 0.00 | 0.00 | 85 | 1019.8 |
| 20260905015005 | 64 | 112 | 0.0 | 2.0 | 0.00 | 0.00 | 0.00 | 85 | 1019.8 |
| 20260905014504 | 64 | 113 | 2.0 | 2.0 | 0.00 | 0.00 | 0.00 | 85 | 1019.8 |
| 20260905014005 | 64 | 135 | 0.0 | 1.0 | 0.00 | 0.00 | 0.00 | 85 | 1019.8 |
| 20260905013504 | 64 | 132 | 0.0 | 2.0 | 0.00 | 0.00 | 0.00 | 86 | 1019.8 |
| 20260905013005 | 64 | 132 | 1.0 | 2.0 | 0.00 | 0.00 | 0.00 | 85 | 1019.8 |
| 20260905012504 | 64 | 112 | 0.0 | 2.0 | 0.00 | 0.00 | 0.00 | 85 | 1019.8 |
| 20260905012005 | 64 | 112 | 0.0 | 2.0 | 0.00 | 0.00 | 0.00 | 85 | 1019.8 |
| 20260905011505 | 64 | 112 | 0.0 | 2.0 | 0.00 | 0.00 | 0.00 | 85 | 1019.8 |
| 20260905011004 | 64 | 112 | 0.0 | 2.0 | 0.00 | 0.00 | 0.00 | 85 | 1019.8 |
| 20260905010005 | 64 | 112 | 0.0 | 2.0 | 0.00 | 0.00 | 0.00 | 85 | 1019.8 |
| 20260905005504 | 65 | 112 | 0.0 | 2.0 | 0.00 | 0.00 | 0.00 | 85 | 1018.8 |
| 20260905005005 | 65 | 111 | 0.0 | 1.0 | 0.00 | 0.00 | 0.00 | 85 | 1018.8 |
| 20260905004004 | 65 | 112 | 0.0 | 2.0 | 0.00 | 0.00 | 0.00 | 85 | 1019.8 |
| 20260905003505 | 65 | 112 | 0.0 | 2.0 | 0.00 | 0.00 | 0.00 | 84 | 1019.8 |
| 20260905003004 | 65 | 112 | 0.0 | 2.0 | 0.00 | 0.00 | 0.00 | 84 | 1019.8 |
| 20260905002505 | 65 | 112 | 0.0 | 2.0 | 0.00 | 0.00 | 0.00 | 85 | 1019.8 |
| 20260905002005 | 65 | 45 | 0.0 | 2.0 | 0.00 | 0.00 | 0.00 | 84 | 1019.8 |
| 20260905001505 | 65 | 45 | 0.0 | 2.0 | 0.00 | 0.00 | 0.00 | 84 | 1019.8 |
| 20260905001005 | 65 | 45 | 0.0 | 2.0 | 0.00 | 0.00 | 0.00 | 84 | 1019.8 |
| 20260905000505 | 65 | 58 | 0.0 | 2.0 | 0.00 | 0.00 | 0.00 | 82 | 1019.8 |
| 20260905000004 | 65 | 66 | 1.0 | 2.0 | 0.00 | 0.00 | 0.00 | 84 | 1019.8 |
| 20260904235505 | 65 | 68 | 2.0 | 2.0 | 0.00 | 0.00 | 0.00 | 84 | 1019.8 |
| 20260904235004 | 65 | 68 | 1.0 | 2.0 | 0.00 | 0.00 | 0.00 | 84 | 1019.8 |
| 20260904234505 | 65 | 0 | 0.0 | 0.0 | 0.00 | 0.00 | 0.00 | 82 | 1019.8 |
| 20260904234004 | 65 | 0 | 0.0 | 0.0 | 0.00 | 0.00 | 0.00 | 82 | 1019.8 |
| 20260904233505 | 66 | 68 | 0.0 | 2.0 | 0.00 | 0.00 | 0.00 | 82 | 1019.8 |
| 20260904233005 | 66 | 68 | 0.0 | 2.0 | 0.00 | 0.00 | 0.00 | 82 | 1019.8 |
| 20260904232505 | 66 | 0 | 0.0 | 0.0 | 0.00 | 0.00 | 0.00 | 82 | 1019.8 |
| 20260904232004 | 66 | 0 | 0.0 | 0.0 | 0.00 | 0.00 | 0.00 | 82 | 1019.8 |
| 20260904231505 | 66 | 0 | 0.0 | 0.0 | 0.00 | 0.00 | 0.00 | 81 | 1019.8 |
| 20260904230504 | 66 | 41 | 0.0 | 2.0 | 0.00 | 0.00 | 0.00 | 80 | 1019.8 |
| 20260904230004 | 66 | 31 | 0.0 | 2.0 | 0.00 | 0.00 | 0.00 | 80 | 1019.8 |
| 20260904225505 | 66 | 7 | 1.0 | 2.0 | 0.00 | 0.00 | 0.00 | 80 | 1019.8 |
| 20260904224505 | 67 | 0 | 0.0 | 0.0 | 0.00 | 0.00 | 0.00 | 80 | 1019.8 |
| 20260904223504 | 67 | 0 | 0.0 | 0.0 | 0.00 | 0.00 | 0.00 | 79 | 1020.8 |
| 20260904223005 | 67 | 0 | 0.0 | 0.0 | 0.00 | 0.00 | 0.00 | 79 | 1020.8 |
| 20260904222504 | 67 | 0 | 0.0 | 0.0 | 0.00 | 0.00 | 0.00 | 79 | 1019.8 |
| 20260904222005 | 67 | 0 | 0.0 | 0.0 | 0.00 | 0.00 | 0.00 | 78 | 1019.8 |
| 20260904221505 | 67 | 0 | 0.0 | 0.0 | 0.00 | 0.00 | 0.00 | 78 | 1019.8 |
| 20260904221005 | 67 | 337 | 0.0 | 1.0 | 0.00 | 0.00 | 0.00 | 78 | 1019.8 |
| 20260904220504 | 67 | 227 | 0.0 | 2.0 | 0.00 | 0.00 | 0.00 | 78 | 1019.8 |
| 20260904220009 | 67 | 221 | 0.0 | 2.0 | 0.00 | 0.00 | 0.00 | 78 | 1019.8 |
| 20260904215504 | 68 | 22 | 0.0 | 2.0 | 0.00 | 0.00 | 0.00 | 78 | 1020.8 |
| 20260904215005 | 68 | 22 | 0.0 | 2.0 | 0.00 | 0.00 | 0.00 | 77 | 1020.8 |
| 20260904214504 | 68 | 23 | 0.0 | 1.0 | 0.00 | 0.00 | 0.00 | 77 | 1020.8 |
| 20260904214005 | 68 | 0 | 0.0 | 0.0 | 0.00 | 0.00 | 0.00 | 77 | 1019.8 |
| 20260904213505 | 68 | 23 | 0.0 | 2.0 | 0.00 | 0.00 | 0.00 | 76 | 1019.8 |
| 20260904213005 | 68 | 23 | 0.0 | 2.0 | 0.00 | 0.00 | 0.00 | 76 | 1019.8 |
| 20260904212505 | 68 | 30 | 0.0 | 2.0 | 0.00 | 0.00 | 0.00 | 75 | 1020.8 |
| 20260904212008 | 68 | 89 | 1.0 | 2.0 | 0.00 | 0.00 | 0.00 | 74 | 1020.8 |
| 20260904211506 | 69 | 86 | 0.0 | 3.0 | 0.00 | 0.00 | 0.00 | 74 | 1020.8 |
| 20260904210007 | 69 | 45 | 0.0 | 1.0 | 0.00 | 0.00 | 0.00 | 74 | 1019.8 |
| 20260904205506 | 69 | 45 | 0.0 | 1.0 | 0.00 | 0.00 | 0.00 | 73 | 1019.8 |
| 20260904205007 | 69 | 0 | 0.0 | 0.0 | 0.00 | 0.00 | 0.00 | 73 | 1019.8 |
| 20260904204506 | 69 | 0 | 0.0 | 0.0 | 0.00 | 0.00 | 0.00 | 73 | 1019.8 |
| 20260904204007 | 69 | 0 | 0.0 | 0.0 | 0.00 | 0.00 | 0.00 | 73 | 1019.8 |
| 20260904203506 | 69 | 112 | 0.0 | 1.0 | 0.00 | 0.00 | 0.00 | 72 | 1019.8 |
| 20260904203006 | 69 | 112 | 0.0 | 1.0 | 0.00 | 0.00 | 0.00 | 73 | 1019.8 |
| 20260904202507 | 70 | 111 | 0.0 | 2.0 | 0.00 | 0.00 | 0.00 | 71 | 1020.8 |
| 20260904201506 | 70 | 112 | 2.0 | 2.0 | 0.00 | 0.00 | 0.00 | 71 | 1020.8 |
| 20260904201006 | 70 | 112 | 0.0 | 2.0 | 0.00 | 0.00 | 0.00 | 70 | 1020.8 |
| 20260904200506 | 70 | 0 | 0.0 | 0.0 | 0.00 | 0.00 | 0.00 | 70 | 1020.8 |
| 20260904200007 | 70 | 0 | 0.0 | 0.0 | 0.00 | 0.00 | 0.00 | 69 | 1020.8 |
| 20260904195506 | 71 | 112 | 0.0 | 2.0 | 0.00 | 0.00 | 0.00 | 69 | 1020.8 |
| 20260904195007 | 71 | 112 | 0.0 | 2.0 | 0.00 | 0.00 | 0.00 | 68 | 1020.8 |
| 20260904194506 | 71 | 112 | 0.0 | 2.0 | 0.00 | 0.00 | 0.00 | 69 | 1020.8 |
| 20260904194006 | 71 | 0 | 0.0 | 0.0 | 0.00 | 0.00 | 0.00 | 68 | 1020.8 |
| 20260904193006 | 72 | 111 | 0.0 | 2.0 | 0.00 | 0.00 | 0.00 | 66 | 1020.8 |
| 20260904192507 | 72 | 112 | 0.0 | 2.0 | 0.00 | 0.00 | 0.00 | 65 | 1020.8 |
| 20260904192006 | 72 | 112 | 0.0 | 2.0 | 0.00 | 0.00 | 0.00 | 65 | 1020.8 |
| 20260904191506 | 72 | 0 | 0.0 | 0.0 | 0.00 | 0.00 | 0.00 | 65 | 1020.8 |
| 20260904191006 | 72 | 0 | 0.0 | 0.0 | 0.00 | 0.00 | 0.00 | 64 | 1020.8 |
| 20260904190007 | 73 | 112 | 0.0 | 1.0 | 0.00 | 0.00 | 0.00 | 64 | 1020.8 |
| 20260904185506 | 73 | 112 | 0.0 | 2.0 | 0.00 | 0.00 | 0.00 | 63 | 1020.8 |
| 20260904185006 | 73 | 112 | 0.0 | 2.0 | 0.00 | 0.00 | 0.00 | 63 | 1020.8 |
| 20260904184507 | 73 | 182 | 1.0 | 2.0 | 0.00 | 0.00 | 0.00 | 62 | 1020.8 |
| 20260904184006 | 74 | 288 | 0.0 | 2.0 | 0.00 | 0.00 | 0.00 | 62 | 1019.8 |
| 20260904183506 | 74 | 344 | 0.0 | 2.0 | 0.00 | 0.00 | 0.00 | 61 | 1019.8 |
| 20260904183006 | 74 | 45 | 0.0 | 2.0 | 0.00 | 0.00 | 0.00 | 60 | 1019.8 |
| 20260904182507 | 75 | 38 | 0.0 | 2.0 | 0.00 | 0.00 | 0.00 | 59 | 1019.8 |
| 20260904182006 | 75 | 29 | 2.0 | 2.0 | 0.00 | 0.00 | 0.00 | 59 | 1019.8 |
| 20260904181507 | 75 | 164 | 0.0 | 2.0 | 0.00 | 0.00 | 0.00 | 58 | 1019.8 |
| 20260904181006 | 76 | 174 | 0.0 | 2.0 | 0.00 | 0.00 | 0.00 | 58 | 1019.8 |
| 20260904180507 | 76 | 196 | 2.0 | 2.0 | 0.00 | 0.00 | 0.00 | 58 | 1019.8 |
| 20260904180006 | 76 | 203 | 0.0 | 2.0 | 0.00 | 0.00 | 0.00 | 56 | 1019.8 |
| 20260904175507 | 77 | 203 | 0.0 | 2.0 | 0.00 | 0.00 | 0.00 | 56 | 1018.8 |
| 20260904175006 | 77 | 0 | 0.0 | 0.0 | 0.00 | 0.00 | 0.00 | 55 | 1018.8 |
| 20260904174006 | 78 | 225 | 0.0 | 2.0 | 0.00 | 0.00 | 0.00 | 54 | 1019.8 |
| 20260904173506 | 78 | 225 | 1.0 | 2.0 | 0.00 | 0.00 | 0.00 | 53 | 1019.8 |
| 20260904172506 | 79 | 239 | 0.0 | 2.0 | 0.00 | 0.00 | 0.00 | 52 | 1019.8 |
| 20260904171506 | 81 | 257 | 1.0 | 3.0 | 0.00 | 0.00 | 0.00 | 48 | 1019.8 |
| 20260904171006 | 81 | 235 | 1.0 | 3.0 | 0.00 | 0.00 | 0.00 | 47 | 1019.8 |
| 20260904165506 | 83 | 255 | 2.0 | 4.0 | 0.00 | 0.00 | 0.00 | 45 | 1019.8 |
| 20260904165008 | 83 | 249 | 3.0 | 4.0 | 0.00 | 0.00 | 0.00 | 44 | 1019.8 |
| 20260904164506 | 83 | 247 | 2.0 | 4.0 | 0.00 | 0.00 | 0.00 | 43 | 1019.8 |
| 20260904164006 | 84 | 249 | 2.0 | 4.0 | 0.00 | 0.00 | 0.00 | 43 | 1018.8 |
| 20260904163506 | 85 | 251 | 2.0 | 4.0 | 0.00 | 0.00 | 0.00 | 41 | 1018.8 |
| 20260904162506 | 85 | 256 | 3.0 | 4.0 | 0.00 | 0.00 | 0.00 | 40 | 1018.8 |
| 20260904162007 | 85 | 259 | 2.0 | 4.0 | 0.00 | 0.00 | 0.00 | 40 | 1018.8 |
| 20260904161007 | 86 | 189 | 4.0 | 9.0 | 0.00 | 0.00 | 0.00 | 37 | 1018.8 |
| 20260904160507 | 86 | 201 | 2.0 | 9.0 | 0.00 | 0.00 | 0.00 | 36 | 1018.8 |
| 20260904160006 | 86 | 210 | 4.0 | 7.0 | 0.00 | 0.00 | 0.00 | 36 | 1018.8 |
| 20260904155506 | 86 | 196 | 4.0 | 9.0 | 0.00 | 0.00 | 0.00 | 36 | 1019.8 |
| 20260904155007 | 86 | 199 | 5.0 | 10.0 | 0.00 | 0.00 | 0.00 | 37 | 1019.8 |
| 20260904154506 | 87 | 198 | 7.0 | 10.0 | 0.00 | 0.00 | 0.00 | 38 | 1019.8 |
| 20260904153506 | 87 | 205 | 4.0 | 11.0 | 0.00 | 0.00 | 0.00 | 36 | 1019.8 |
| 20260904153007 | 87 | 221 | 4.0 | 8.0 | 0.00 | 0.00 | 0.00 | 37 | 1019.8 |
| 20260904152006 | 87 | 212 | 5.0 | 8.0 | 0.00 | 0.00 | 0.00 | 37 | 1019.8 |
| 20260904151507 | 87 | 254 | 4.0 | 8.0 | 0.00 | 0.00 | 0.00 | 36 | 1019.8 |
| 20260904151006 | 87 | 238 | 2.0 | 8.0 | 0.00 | 0.00 | 0.00 | 37 | 1019.8 |
| 20260904150507 | 87 | 218 | 2.0 | 8.0 | 0.00 | 0.00 | 0.00 | 37 | 1019.8 |
| 20260904150006 | 88 | 287 | 2.0 | 9.0 | 0.00 | 0.00 | 0.00 | 38 | 1019.8 |
| 20260904145506 | 88 | 273 | 5.0 | 9.0 | 0.00 | 0.00 | 0.00 | 37 | 1019.8 |
| 20260904145006 | 88 | 219 | 4.0 | 9.0 | 0.00 | 0.00 | 0.00 | 37 | 1019.8 |
| 20260904144507 | 88 | 196 | 3.0 | 9.0 | 0.00 | 0.00 | 0.00 | 36 | 1019.8 |
| 20260904144006 | 88 | 187 | 4.0 | 9.0 | 0.00 | 0.00 | 0.00 | 37 | 1019.8 |
| 20260904143506 | 88 | 224 | 5.0 | 9.0 | 0.00 | 0.00 | 0.00 | 36 | 1019.8 |
| 20260904143006 | 88 | 265 | 3.0 | 9.0 | 0.00 | 0.00 | 0.00 | 38 | 1019.8 |
| 20260904142506 | 88 | 265 | 4.0 | 11.0 | 0.00 | 0.00 | 0.00 | 38 | 1020.8 |
| 20260904142006 | 88 | 267 | 4.0 | 13.0 | 0.00 | 0.00 | 0.00 | 37 | 1020.8 |
| 20260904141506 | 88 | 291 | 4.0 | 13.0 | 0.00 | 0.00 | 0.00 | 37 | 1020.8 |
| 20260904140006 | 88 | 272 | 6.0 | 13.0 | 0.00 | 0.00 | 0.00 | 36 | 1020.8 |
| 20260904135006 | 88 | 265 | 3.0 | 13.0 | 0.00 | 0.00 | 0.00 | 36 | 1020.8 |
| 20260904134506 | 88 | 272 | 4.0 | 13.0 | 0.00 | 0.00 | 0.00 | 36 | 1020.8 |
| 20260904134006 | 89 | 273 | 7.0 | 11.0 | 0.00 | 0.00 | 0.00 | 36 | 1020.8 |
| 20260904133006 | 89 | 275 | 5.0 | 9.0 | 0.00 | 0.00 | 0.00 | 36 | 1020.8 |
| 20260904132520 | 89 | 270 | 2.0 | 8.0 | 0.00 | 0.00 | 0.00 | 36 | 1020.8 |
| 20260904132017 | 89 | 263 | 5.0 | 11.0 | 0.00 | 0.00 | 0.00 | 36 | 1020.8 |
| 20260904131517 | 89 | 262 | 6.0 | 11.0 | 0.00 | 0.00 | 0.00 | 36 | 1020.8 |
| 20260904131028 | 89 | 267 | 6.0 | 11.0 | 0.00 | 0.00 | 0.00 | 36 | 1020.8 |
| 20260904130507 | 89 | 274 | 6.0 | 9.0 | 0.00 | 0.00 | 0.00 | 36 | 1020.8 |
| 20260904130006 | 90 | 282 | 5.0 | 9.0 | 0.00 | 0.00 | 0.00 | 36 | 1020.8 |
| 20260904125506 | 90 | 275 | 5.0 | 9.0 | 0.00 | 0.00 | 0.00 | 36 | 1020.8 |
| 20260904125006 | 90 | 282 | 2.0 | 8.0 | 0.00 | 0.00 | 0.00 | 36 | 1020.8 |
| 20260904124506 | 90 | 269 | 2.0 | 8.0 | 0.00 | 0.00 | 0.00 | 37 | 1020.8 |
| 20260904124006 | 90 | 235 | 3.0 | 6.0 | 0.00 | 0.00 | 0.00 | 37 | 1021.8 |
| 20260904123506 | 90 | 280 | 3.0 | 12.0 | 0.00 | 0.00 | 0.00 | 37 | 1021.8 |
| 20260904122506 | 90 | 254 | 2.0 | 9.0 | 0.00 | 0.00 | 0.00 | 36 | 1021.8 |